AirNav   Duncan Aviation - Near you to keep you flying
 
 1249 users online  

KSQL San Carlos Airport
San Carlos, California, USA

GOING TO SAN CARLOS?


FAA INFORMATION EFFECTIVE 16 JUNE 2022

Location

FAA Identifier: SQL
Lat/Long: 37-30-42.7000N 122-14-58.3120W
37-30.711667N 122-14.971867W
37.5118611,-122.2495311
(estimated)
Elevation: 5.5 ft. / 1.7 m (surveyed)
Variation: 15E (2000)
From city: 2 miles NE of SAN CARLOS, CA
Time zone: UTC -7 (UTC -8 during Standard Time)
Zip code: 94070

Airport Operations

Airport use: Open to the public
Activation date: 07/1952
Control tower: yes
ARTCC: OAKLAND CENTER
FSS: OAKLAND FLIGHT SERVICE STATION
NOTAMs facility: SQL (NOTAM-D service available)
Attendance: 0600-2200
Pattern altitude: 805.5 ft. MSL
APPLIES TO BOTH-FIXED WING AND HEL.
Wind indicator: lighted
Segmented circle: yes
Lights: WHEN ATCT CLSD; ACTVT MIRL RWY 12/30 & REIL RWY 12/30 - 119.0
Beacon: white-green (lighted land airport)
Operates sunset to sunrise.

Airport Communications

CTAF: 119.0
UNICOM: 122.95
ATIS: 125.9
WX AWOS-3P: 125.9 (650-593-0613)
SAN CARLOS GROUND: 121.6 [0700-2100]
SAN CARLOS TOWER: 119.0 326.2 [0700-2100]
NORCAL APPROACH: 133.95 135.65
NORCAL DEPARTURE: 135.65
WX ASOS at SFO (9 nm NW): PHONE 650-827-8593
WX ASOS at HWD (11 nm NE): PHONE 510-786-3052
WX AWOS-3PT at NUQ (11 nm SE): 124.175 (650-386-0655)
WX AWOS-3 at HAF (12 nm W): 127.275 (650-728-5649)
WX ASOS at OAK (13 nm N): PHONE 510-214-1776
WX AWOS-AV at 18CN (17 nm NW): 119.925 (415-514-4209)
WX ASOS at SJC (18 nm SE): 126.95 (408-969-0838)
  • FREQ 121.5 NOT AVAILABLE.

Airport Services

Fuel available: 100LL JET-A JET-A+ UL94
Parking: tiedowns
Airframe service: MINOR
Powerplant service: MINOR
Bottled oxygen: NONE
Bulk oxygen: NONE

Runway Information

Runway 12/30

Dimensions: 2621 x 75 ft. / 799 x 23 m
Surface: asphalt, in fair condition
Weight bearing capacity: 
Single wheel: 12.5
Runway edge lights: medium intensity
RUNWAY 12  RUNWAY 30
Latitude: 37-30.872110N37-30.551228N
Longitude: 122-15.153375W122-14.790375W
Elevation: 5.0 ft.5.1 ft.
Traffic pattern: left
HEL RIGHT TFC RWY 12/LEFT TFC RWY 30.
right
FIXED-WING RIGHT TFC RWY 30/LEFT TFC RWY 12.
Runway heading: 123 magnetic, 138 true303 magnetic, 318 true
Markings: nonprecision, in good conditionnonprecision, in good condition
Visual slope indicator: 2-box VASI on left (3.00 degrees glide path)2-box VASI on left (3.00 degrees glide path)
UNUSBL BYD 8 DEG LEFT OF CNTRLN.
Runway end identifier lights: yesyes
Touchdown point: yes, no lightsyes, no lights
Obstructions: 18 ft. pole, 565 ft. from runway, 80 ft. right of centerline, 20:1 slope to clearnone
7' LGTD DIKE 100' E OF CNTRLN AT THR, EXTENDING TO 60' E OF CNTRLN AT END OF PRIMARY SFC.

Airport Ownership and Management from official FAA records

Ownership: Publicly-owned
Owner: SAN MATEO COUNTY
555 COUNTY CENTER, 5TH FLOOR
REDWOOD CITY, CA 94063-1665
Phone 650-573-3700
DIRECTOR OF PUBLIC WORKS - JAMES PORTER.
Manager: GRETCHEN KELLY
620 AIRPORT DR
SAN CARLOS, CA 94070
Phone 650-573-3700

Airport Operational Statistics

Aircraft based on the field: 323
Single engine airplanes: 287
Multi engine airplanes: 23
Jet airplanes: 4
Helicopters: 9
    
Aircraft operations: avg 318/day *
47% local general aviation
40% transient general aviation
13% air taxi
<1% military
* for 12-month period ending 15 January 2020

Additional Remarks

FOR CD WHEN ATCT IS CLSD CTC NORCAL APCH AT 916-361-3829.
RABBIT AVIATION 130.00
LRG HEL SHOULD AVOID OVERFLIGHT OF DIRT INFIELD AREAS.
NO TGL OR STOP AND GO LDGS WHEN ATCT CLSD.
CALM WIND RWY 12.
NOISE SENSITIVE AREAS S THRU NE OF ARPT. FOR NOISE ABATEMENT PROCEDURES CTC AMGR (650) 573-3700.
MIGRATORY BIRD ACT ON & INVOF OF ARPT.
100 FT STEEL TRANSMISSION TWRS AND POWERLINES LCTD 750 FT WEST AND PARALLEL TO RWY 12/30.
7 FT LIGHTED DIKE LCTD IN RWY SAFETY AREA ON APCH END RWY 30.

Instrument Procedures

NOTE: All procedures below are presented as PDF files. If you need a reader for these files, you should download the free Adobe Reader.

NOT FOR NAVIGATION. Please procure official charts for flight.
FAA instrument procedures published for use from 16 June 2022 at 0901Z to 14 July 2022 at 0900z.

 
STARs - Standard Terminal Arrivals
POINT REYES THREE   download (241KB)
POINT REYES THREE   download (241KB)
 
IAPs - Instrument Approach Procedures
RNAV (GPS) Y RWY 30   download (321KB)
RNAV (GPS) Z RWY 30   download (332KB)
NOTE: Special Alternate Minimums apply   download (59KB)
NOTE: Special Take-Off Minimums/Departure Procedures apply   download (211KB)

Other nearby airports with instrument procedures:

KPAO - Palo Alto Airport (7 nm SE)
KSFO - San Francisco International Airport (9 nm NW)
KHWD - Hayward Executive Airport (11 nm NE)
KNUQ - Moffett Federal Airfield (11 nm SE)
KHAF - Half Moon Bay Airport (12 nm W)
KOAK - Metro Oakland International Airport (13 nm N)
KSJC - Norman Y Mineta San Jose International Airport (18 nm SE)
 
Loc | Ops | Rwys | IFR | FBO | Links
Com | Nav | Svcs | Stats | Notes

Mountain West Aviation, LLC
 
Area around KSQL (San Carlos Airport)
 
Road maps at: MapQuest Bing Google
 
Aerial photo
WARNING: Photo may not be current or correct
Aerial photo of KSQL (San Carlos Airport)
Photo by Chris Leipelt
Photo taken 30-Dec-2015
looking east.

Do you have a better or more recent aerial photo of San Carlos Airport that you would like to share? If so, please send us your photo.

 
Sectional chart

 
Airport diagram
Diagram of KSQL (San Carlos Airport)
Download PDF
of official airport diagram from the FAA

 
Airport distance calculator
Flying to San Carlos Airport? Find the distance to fly.

From to KSQL

Sunrise and sunset
Times for 29-Jun-2022
 Local
(UTC-7)
 Zulu
(UTC)
Morning civil twilight05:2112:21
Sunrise05:5212:52
Sunset20:3303:33
Evening civil twilight21:0404:04

Current date and time
Zulu (UTC)  30-Jun-2022 00:00:33
Local (UTC-7)  29-Jun-2022 17:00:33
 
METAR
KSQL 292250Z 28010KT 10SM FEW010 22/11 A3002
KPAO 
7nm SE 
292347Z 34018KT 10SM SKC 19/14 A3001
KSFO 
8nm NW 
292256Z 28018G25KT 10SM FEW007 18/11 A3003 RMK AO2 PK WND 29027/2218 SLP168 T01830106
KHWD 
11nm NE 
292354Z 28013KT 10SM CLR 19/12 A3002 RMK AO2 SLP175 T01890122 10194 20161 56011
KOAK 
11nm N 
292353Z 29014KT 10SM FEW010 18/11 A3003 RMK AO2 SLP168 T01780111 10189 20150 56013
KHAF 
12nm W 
292335Z AUTO 31008KT 5SM BR OVC011 14/13 A3007 RMK AO2
KSJC 
18nm SE 
292353Z 32013KT 10SM CLR 22/12 A3000 RMK AO2 SLP158 T02220117 10233 20200 57011
TAF
KSFO 
8nm NW 
292149Z 2922/3024 28019G28KT P6SM SKC FM300300 27017KT P6SM SCT007 TEMPO 3004/3008 P6SM BKN007 FM300800 27009KT P6SM OVC007 FM302100 27017KT P6SM FEW008
KOAK 
11nm N 
291720Z 2918/3024 28014KT P6SM SCT010 TEMPO 2918/2921 BKN008 FM300300 28010KT P6SM BKN008 FM301700 27011KT P6SM SCT008 FM302100 27010KT P6SM SKC
KSJC 
18nm SE 
291720Z 2918/3018 32008KT P6SM FEW020 FM292200 31012KT P6SM SKC FM300600 VRB05KT P6SM SCT010
NOTAMs
Click for the latest NOTAMs
NOTAMs are issued by the DoD/FAA and will open in a separate window not controlled by AirNav.

 

 
 

FBO, Fuel Providers, and Aircraft Ground Support

  
 Business Name 
 
 Contact 
 
 Services / Description 
 
Fuel Prices
 
Comments
  
Rabbit Aviation Services 650-591-5857
650-716-6579
[web site]
[email]
Aviation fuel, Aircraft ground handling, Oxygen service, GPU / Power cart, Aircraft cleaning / washing / detailing, Rental cars nearby

More info about Rabbit Aviation Services
Avfuel
100LL UL94 Jet A
FS $7.60 $7.25 $6.95 
GUARANTEED
 
   2 read write
FS=Full service
Update Fuel Prices
 

Aviation Businesses, Services, and Facilities

  
 Business Name 
 
 Contact 
 
 Services / Description 
 
Distance
 
Comments
  
 San Carlos Flight Center
650-946-1700
[web site]
[email]
Flight training, Aircraft rental, Aircraft maintenance, Aircraft parts, Flying club, Internet access, Restrooms

More info about San Carlos Flight Center
on airport  
   write
West Valley Flying Club 650-856-2030
[web site]
Flight training, Aircraft rental, Pilot supplies, Flying club

More info about West Valley Flying Club
on airport  
   write
 

Where to Eat: Catering, Restaurants, Food shops

  
 Business Name 
 
 Contact 
 
 Services / Description 
 
Distance
 
Comments
  
Sky Kitchen 650-595-0464
no information available

If you are affiliated with Sky Kitchen and would like to show here your services, contact info, web link, logo, and more, click here
on airport  
   write
 

Things to do: Attractions on or near the airport

  
 Business Name 
 
 Contact 
 
 Services / Description 
 
Distance
 
Comments
  
Hiller Aviation Museum 650-654-0200
no information available

If you are affiliated with Hiller Aviation Museum and would like to show here your services, contact info, web link, logo, and more, click here
on airport  
   write
 

Would you like to see your business listed on this page?

 If your business provides an interesting product or service to pilots, flight crews, aircraft, or users of the San Carlos Airport, you should consider listing it here.  To start the listing process, click on the button below
 
Add a business
 

Other Pages about San Carlos Airport

publicworks.smcgov.org/san-carlos-airport
www.sancarlosairport.org
 
Update a link
 
Copyright © AirNav, LLC. All rights reserved. Privacy Policy  Contact